Year,Month,Day,Hour,Minute,Value (Times are PST for temperature in C)
2021,06,08,00,00,7.30
2021,06,08,00,01,7.30
2021,06,08,00,02,7.30
2021,06,08,00,03,7.30
2021,06,08,00,04,7.30
2021,06,08,00,05,7.30
2021,06,08,00,06,7.30
2021,06,08,00,07,7.30
2021,06,08,00,08,7.30
2021,06,08,00,09,7.30
2021,06,08,00,10,7.20
2021,06,08,00,11,7.20
2021,06,08,00,12,7.20
2021,06,08,00,13,7.20
2021,06,08,00,14,7.20
2021,06,08,00,15,7.20
2021,06,08,00,16,7.20
2021,06,08,00,17,7.20
2021,06,08,00,18,7.20
2021,06,08,00,19,7.20
2021,06,08,00,20,7.20
2021,06,08,00,21,7.10
2021,06,08,00,22,7.10
2021,06,08,00,23,7.10
2021,06,08,00,24,7.10
2021,06,08,00,25,7.10
2021,06,08,00,26,7.10
2021,06,08,00,27,7.10
2021,06,08,00,28,7.10
2021,06,08,00,29,7.10
2021,06,08,00,30,7.10
2021,06,08,00,31,7.00
2021,06,08,00,32,7.00
2021,06,08,00,33,7.00
2021,06,08,00,34,7.00
2021,06,08,00,35,6.90
2021,06,08,00,36,6.90
2021,06,08,00,37,6.90
2021,06,08,00,38,6.90
2021,06,08,00,39,6.90
2021,06,08,00,40,6.90
2021,06,08,00,41,6.80
2021,06,08,00,42,6.80
2021,06,08,00,43,6.80
2021,06,08,00,44,6.80
2021,06,08,00,45,6.80
2021,06,08,00,46,6.80
2021,06,08,00,47,6.80
2021,06,08,00,48,6.80
2021,06,08,00,49,6.80
2021,06,08,00,50,6.80
2021,06,08,00,51,6.80
2021,06,08,00,52,6.80
2021,06,08,00,53,6.80
2021,06,08,00,54,6.80
2021,06,08,00,55,6.80
2021,06,08,00,56,6.70
2021,06,08,00,57,6.70
2021,06,08,00,58,6.70
2021,06,08,00,59,6.70
2021,06,08,01,00,6.70
2021,06,08,01,01,6.70
2021,06,08,01,02,6.70
2021,06,08,01,03,6.70
2021,06,08,01,04,6.70
2021,06,08,01,05,6.70
2021,06,08,01,06,6.70
2021,06,08,01,07,6.70
2021,06,08,01,08,6.70
2021,06,08,01,09,6.70
2021,06,08,01,10,6.70
2021,06,08,01,11,6.70
2021,06,08,01,12,6.70
2021,06,08,01,13,6.70
2021,06,08,01,14,6.60
2021,06,08,01,15,6.60
2021,06,08,01,16,6.60
2021,06,08,01,17,6.60
2021,06,08,01,18,6.60
2021,06,08,01,19,6.60
2021,06,08,01,20,6.50
2021,06,08,01,21,6.50
2021,06,08,01,22,6.50
2021,06,08,01,23,6.40
2021,06,08,01,24,6.40
2021,06,08,01,25,6.40
2021,06,08,01,26,6.40
2021,06,08,01,27,6.30
2021,06,08,01,28,6.30
2021,06,08,01,29,6.30
2021,06,08,01,30,6.30
2021,06,08,01,31,6.30
2021,06,08,01,32,6.30
2021,06,08,01,33,6.30
2021,06,08,01,34,6.30
2021,06,08,01,35,6.30
2021,06,08,01,36,6.30
2021,06,08,01,37,6.30
2021,06,08,01,38,6.30
2021,06,08,01,39,6.30
2021,06,08,01,40,6.30
2021,06,08,01,41,6.30
2021,06,08,01,42,6.30
2021,06,08,01,43,6.30
2021,06,08,01,44,6.30
2021,06,08,01,45,6.30
2021,06,08,01,46,6.30
2021,06,08,01,47,6.30
2021,06,08,01,48,6.20
2021,06,08,01,49,6.20
2021,06,08,01,50,6.20
2021,06,08,01,51,6.20
2021,06,08,01,52,6.20
2021,06,08,01,53,6.20
2021,06,08,01,54,6.20
2021,06,08,01,55,6.20
2021,06,08,01,56,6.20
2021,06,08,01,57,6.20
2021,06,08,01,58,6.20
2021,06,08,01,59,6.20
2021,06,08,02,00,6.20
2021,06,08,02,01,6.10
2021,06,08,02,02,6.10
2021,06,08,02,03,6.10
2021,06,08,02,04,6.10
2021,06,08,02,05,6.10
2021,06,08,02,06,6.00
2021,06,08,02,07,6.00
2021,06,08,02,08,6.00
2021,06,08,02,09,6.10
2021,06,08,02,10,6.10
2021,06,08,02,11,6.10
2021,06,08,02,12,6.10
2021,06,08,02,13,6.10
2021,06,08,02,14,6.10
2021,06,08,02,15,6.10
2021,06,08,02,16,6.00
2021,06,08,02,17,6.00
2021,06,08,02,18,5.90
2021,06,08,02,19,5.90
2021,06,08,02,20,5.90
2021,06,08,02,21,5.90
2021,06,08,02,22,5.90
2021,06,08,02,23,5.90
2021,06,08,02,24,5.90
2021,06,08,02,25,5.90
2021,06,08,02,26,5.80
2021,06,08,02,27,5.80
2021,06,08,02,28,5.80
2021,06,08,02,29,5.80
2021,06,08,02,30,5.80
2021,06,08,02,31,5.80
2021,06,08,02,32,5.80
2021,06,08,02,33,5.80
2021,06,08,02,34,5.80
2021,06,08,02,35,5.80
2021,06,08,02,36,5.80
2021,06,08,02,37,5.80
2021,06,08,02,38,5.80
2021,06,08,02,39,5.80
2021,06,08,02,40,5.80
2021,06,08,02,41,5.80
2021,06,08,02,42,5.80
2021,06,08,02,43,5.80
2021,06,08,02,44,5.80
2021,06,08,02,45,5.80
2021,06,08,02,46,5.80
2021,06,08,02,47,5.80
2021,06,08,02,48,5.80
2021,06,08,02,49,5.70
2021,06,08,02,50,5.70
2021,06,08,02,51,5.70
2021,06,08,02,52,5.70
2021,06,08,02,53,5.70
2021,06,08,02,54,5.70
2021,06,08,02,55,5.70
2021,06,08,02,56,5.70
2021,06,08,02,57,5.70
2021,06,08,02,58,5.70
2021,06,08,02,59,5.70
2021,06,08,03,00,5.70
2021,06,08,03,01,5.70
2021,06,08,03,02,5.70
2021,06,08,03,03,5.70
2021,06,08,03,04,5.70
2021,06,08,03,05,5.70
2021,06,08,03,06,5.70
2021,06,08,03,07,5.70
2021,06,08,03,08,5.70
2021,06,08,03,09,5.70
2021,06,08,03,10,5.70
2021,06,08,03,11,5.70
2021,06,08,03,12,5.70
2021,06,08,03,13,5.70
2021,06,08,03,14,5.70
2021,06,08,03,15,5.70
2021,06,08,03,16,5.70
2021,06,08,03,17,5.70
2021,06,08,03,18,5.70
2021,06,08,03,19,5.70
2021,06,08,03,20,5.70
2021,06,08,03,21,5.70
2021,06,08,03,22,5.70
2021,06,08,03,23,5.70
2021,06,08,03,24,5.70
2021,06,08,03,25,5.70
2021,06,08,03,26,5.70
2021,06,08,03,27,5.70
2021,06,08,03,28,5.70
2021,06,08,03,29,5.70
2021,06,08,03,30,5.70
2021,06,08,03,31,5.70
2021,06,08,03,32,5.70
2021,06,08,03,33,5.70
2021,06,08,03,34,5.70
2021,06,08,03,35,5.70
2021,06,08,03,36,5.70
2021,06,08,03,37,5.60
2021,06,08,03,38,5.60
2021,06,08,03,39,5.60
2021,06,08,03,40,5.60
2021,06,08,03,41,5.60
2021,06,08,03,42,5.60
2021,06,08,03,43,5.70
2021,06,08,03,44,5.70
2021,06,08,03,45,5.70
2021,06,08,03,46,5.70
2021,06,08,03,47,5.70
2021,06,08,03,48,5.70
2021,06,08,03,49,5.70
2021,06,08,03,50,5.70
2021,06,08,03,51,5.70
2021,06,08,03,52,5.70
2021,06,08,03,53,5.70
2021,06,08,03,54,5.70
2021,06,08,03,55,5.70
2021,06,08,03,56,5.70
2021,06,08,03,57,5.70
2021,06,08,03,58,5.70
2021,06,08,03,59,5.70
2021,06,08,04,00,5.80
2021,06,08,04,01,5.80
2021,06,08,04,02,5.80
2021,06,08,04,03,5.70
2021,06,08,04,04,5.70
2021,06,08,04,05,5.70
2021,06,08,04,06,5.70
2021,06,08,04,07,5.70
2021,06,08,04,08,5.70
2021,06,08,04,09,5.70
2021,06,08,04,10,5.70
2021,06,08,04,11,5.70
2021,06,08,04,12,5.70
2021,06,08,04,13,5.70
2021,06,08,04,14,5.70
2021,06,08,04,15,5.70
2021,06,08,04,16,5.70
2021,06,08,04,17,5.70
2021,06,08,04,18,5.70
2021,06,08,04,19,5.70
2021,06,08,04,20,5.70
2021,06,08,04,21,5.70
2021,06,08,04,22,5.70
2021,06,08,04,23,5.70
2021,06,08,04,24,5.70
2021,06,08,04,25,5.70
2021,06,08,04,26,5.70
2021,06,08,04,27,5.70
2021,06,08,04,28,5.70
2021,06,08,04,29,5.70
2021,06,08,04,30,5.70
2021,06,08,04,31,5.80
2021,06,08,04,32,5.70
2021,06,08,04,33,5.70
2021,06,08,04,34,5.70
2021,06,08,04,35,5.70
2021,06,08,04,36,5.70
2021,06,08,04,37,5.70
2021,06,08,04,38,5.70
2021,06,08,04,39,5.70
2021,06,08,04,40,5.70
2021,06,08,04,41,5.80
2021,06,08,04,42,5.80
2021,06,08,04,43,5.80
2021,06,08,04,44,5.80
2021,06,08,04,45,5.80
2021,06,08,04,46,5.80
2021,06,08,04,47,5.80
2021,06,08,04,48,5.80
2021,06,08,04,49,5.80
2021,06,08,04,50,5.80
2021,06,08,04,51,5.80
2021,06,08,04,52,5.80
2021,06,08,04,53,5.80
2021,06,08,04,54,5.80
2021,06,08,04,55,5.80
2021,06,08,04,56,5.80
2021,06,08,04,57,5.80
2021,06,08,04,58,5.80
2021,06,08,04,59,5.80
2021,06,08,05,00,5.80
2021,06,08,05,01,5.80
2021,06,08,05,02,5.90
2021,06,08,05,03,5.90
2021,06,08,05,04,5.90
2021,06,08,05,05,5.80
2021,06,08,05,06,5.80
2021,06,08,05,07,5.80
2021,06,08,05,08,5.80
2021,06,08,05,09,5.80
2021,06,08,05,10,5.80
2021,06,08,05,11,5.80
2021,06,08,05,12,5.80
2021,06,08,05,13,5.80
2021,06,08,05,14,5.90
2021,06,08,05,15,5.90
2021,06,08,05,16,5.90
2021,06,08,05,17,6.00
2021,06,08,05,18,6.00
2021,06,08,05,19,6.00
2021,06,08,05,20,6.00
2021,06,08,05,21,6.00
2021,06,08,05,22,5.90
2021,06,08,05,23,5.90
2021,06,08,05,24,5.90
2021,06,08,05,25,5.90
2021,06,08,05,26,5.90
2021,06,08,05,27,5.90
2021,06,08,05,28,5.90
2021,06,08,05,29,5.90
2021,06,08,05,30,5.90
2021,06,08,05,31,5.90
2021,06,08,05,32,5.90
2021,06,08,05,33,5.90
2021,06,08,05,34,6.00
2021,06,08,05,35,6.00
2021,06,08,05,36,6.00
2021,06,08,05,37,6.00
2021,06,08,05,38,6.00
2021,06,08,05,39,6.10
2021,06,08,05,40,6.10
2021,06,08,05,41,6.20
2021,06,08,05,42,6.20
2021,06,08,05,43,6.10
2021,06,08,05,44,6.10
2021,06,08,05,45,6.10
2021,06,08,05,46,6.10
2021,06,08,05,47,6.10
2021,06,08,05,48,6.20
2021,06,08,05,49,6.20
2021,06,08,05,50,6.20
2021,06,08,05,51,6.20
2021,06,08,05,52,6.20
2021,06,08,05,53,6.20
2021,06,08,05,54,6.20
2021,06,08,05,55,6.20
2021,06,08,05,56,6.10
2021,06,08,05,57,6.10
2021,06,08,05,58,6.20
2021,06,08,05,59,6.30
2021,06,08,06,00,6.30
2021,06,08,06,01,6.40
2021,06,08,06,02,6.40
2021,06,08,06,03,6.40
2021,06,08,06,04,6.40
2021,06,08,06,05,6.40
2021,06,08,06,06,6.40
2021,06,08,06,07,6.40
2021,06,08,06,08,6.40
2021,06,08,06,09,6.40
2021,06,08,06,10,6.50
2021,06,08,06,11,6.60
2021,06,08,06,12,6.60
2021,06,08,06,13,6.70
2021,06,08,06,14,6.70
2021,06,08,06,15,6.70
2021,06,08,06,16,6.70
2021,06,08,06,17,6.70
2021,06,08,06,18,6.70
2021,06,08,06,19,6.70
2021,06,08,06,20,6.80
2021,06,08,06,21,6.80
2021,06,08,06,22,6.80
2021,06,08,06,23,6.90
2021,06,08,06,24,6.90
2021,06,08,06,25,6.90
2021,06,08,06,26,7.00
2021,06,08,06,27,7.00
2021,06,08,06,28,7.10
2021,06,08,06,29,7.10
2021,06,08,06,30,7.20
2021,06,08,06,31,7.20
2021,06,08,06,32,7.20
2021,06,08,06,33,7.30
2021,06,08,06,34,7.30
2021,06,08,06,35,7.30
2021,06,08,06,36,7.30
2021,06,08,06,37,7.30
2021,06,08,06,38,7.40
2021,06,08,06,39,7.40
2021,06,08,06,40,7.40
2021,06,08,06,41,7.40
2021,06,08,06,42,7.40
2021,06,08,06,43,7.40
2021,06,08,06,44,7.40
2021,06,08,06,45,7.40
2021,06,08,06,46,7.50
2021,06,08,06,47,7.50
2021,06,08,06,48,7.50
2021,06,08,06,49,7.50
2021,06,08,06,50,7.50
2021,06,08,06,51,7.50
2021,06,08,06,52,7.50
2021,06,08,06,53,7.60
2021,06,08,06,54,7.60
2021,06,08,06,55,7.60
2021,06,08,06,56,7.60
2021,06,08,06,57,7.60
2021,06,08,06,58,7.60
2021,06,08,06,59,7.50
2021,06,08,07,00,7.60
2021,06,08,07,01,7.60
2021,06,08,07,02,7.60
2021,06,08,07,03,7.60
2021,06,08,07,04,7.60
2021,06,08,07,05,7.60
2021,06,08,07,06,7.60
2021,06,08,07,07,7.60
2021,06,08,07,08,7.70
2021,06,08,07,09,7.70
2021,06,08,07,10,7.70
2021,06,08,07,11,7.70
2021,06,08,07,12,7.80
2021,06,08,07,13,7.80
2021,06,08,07,14,7.90
2021,06,08,07,15,7.90
2021,06,08,07,16,7.90
2021,06,08,07,17,7.90
2021,06,08,07,18,8.00
2021,06,08,07,19,8.00
2021,06,08,07,20,8.10
2021,06,08,07,21,8.10
2021,06,08,07,22,8.20
2021,06,08,07,23,8.20
2021,06,08,07,24,8.30
2021,06,08,07,25,8.30
2021,06,08,07,26,8.40
2021,06,08,07,27,8.40
2021,06,08,07,28,8.40
2021,06,08,07,29,8.50
2021,06,08,07,30,8.50
2021,06,08,07,31,8.60
2021,06,08,07,32,8.70
2021,06,08,07,33,8.70
2021,06,08,07,34,8.80
2021,06,08,07,35,8.80
2021,06,08,07,36,8.90
2021,06,08,07,37,9.00
2021,06,08,07,38,9.00
2021,06,08,07,39,9.10
2021,06,08,07,40,9.20
2021,06,08,07,41,9.30
2021,06,08,07,42,9.40
2021,06,08,07,43,9.40
2021,06,08,07,44,9.50
2021,06,08,07,45,9.60
2021,06,08,07,46,9.60
2021,06,08,07,47,9.70
2021,06,08,07,48,9.70
2021,06,08,07,49,9.80
2021,06,08,07,50,9.80
2021,06,08,07,51,9.80
2021,06,08,07,52,9.90
2021,06,08,07,53,9.90
2021,06,08,07,54,9.90
2021,06,08,07,55,10.00
2021,06,08,07,56,10.00
2021,06,08,07,57,10.10
2021,06,08,07,58,10.10
2021,06,08,07,59,10.10
2021,06,08,08,00,10.20
2021,06,08,08,01,10.20
2021,06,08,08,02,10.20
2021,06,08,08,03,10.20
2021,06,08,08,04,10.30
2021,06,08,08,05,10.30
2021,06,08,08,06,10.30
2021,06,08,08,07,10.40
2021,06,08,08,08,10.40
2021,06,08,08,09,10.40
2021,06,08,08,10,10.50
2021,06,08,08,11,10.50
2021,06,08,08,12,10.50
2021,06,08,08,13,10.50
2021,06,08,08,14,10.60
2021,06,08,08,15,10.60
2021,06,08,08,16,10.60
2021,06,08,08,17,10.70
2021,06,08,08,18,10.70
2021,06,08,08,19,10.70
2021,06,08,08,20,10.70
2021,06,08,08,21,10.80
2021,06,08,08,22,10.80
2021,06,08,08,23,10.80
2021,06,08,08,24,10.80
2021,06,08,08,25,10.80
2021,06,08,08,26,10.90
2021,06,08,08,27,10.90
2021,06,08,08,28,10.90
2021,06,08,08,29,10.90
2021,06,08,08,30,11.00
2021,06,08,08,31,11.00
2021,06,08,08,32,11.00
2021,06,08,08,33,11.10
2021,06,08,08,34,11.10
2021,06,08,08,35,11.10
2021,06,08,08,36,11.20
2021,06,08,08,37,11.20
2021,06,08,08,38,11.20
2021,06,08,08,39,11.20
2021,06,08,08,40,11.20
2021,06,08,08,41,11.20
2021,06,08,08,42,11.20
2021,06,08,08,43,11.30
2021,06,08,08,44,11.30
2021,06,08,08,45,11.30
2021,06,08,08,46,11.30
2021,06,08,08,47,11.30
2021,06,08,08,48,11.30
2021,06,08,08,49,11.40
2021,06,08,08,50,11.40
2021,06,08,08,51,11.40
2021,06,08,08,52,11.40
2021,06,08,08,53,11.50
2021,06,08,08,54,11.60
2021,06,08,08,55,11.60
2021,06,08,08,56,11.70
2021,06,08,08,57,11.70
2021,06,08,08,58,11.60
2021,06,08,08,59,11.60
2021,06,08,09,00,11.70
2021,06,08,09,01,11.70
2021,06,08,09,02,11.80
2021,06,08,09,03,11.90
2021,06,08,09,04,12.00
2021,06,08,09,05,12.10
2021,06,08,09,06,12.10
2021,06,08,09,07,12.20
2021,06,08,09,08,12.20
2021,06,08,09,09,12.20
2021,06,08,09,10,12.20
2021,06,08,09,11,12.20
2021,06,08,09,12,12.30
2021,06,08,09,13,12.30
2021,06,08,09,14,12.30
2021,06,08,09,15,12.30
2021,06,08,09,16,12.30
2021,06,08,09,17,12.30
2021,06,08,09,18,12.30
2021,06,08,09,19,12.30
2021,06,08,09,20,12.40
2021,06,08,09,21,12.40
2021,06,08,09,22,12.40
2021,06,08,09,23,12.50
2021,06,08,09,24,12.50
2021,06,08,09,25,12.60
2021,06,08,09,26,12.70
2021,06,08,09,27,12.80
2021,06,08,09,28,12.90
2021,06,08,09,29,13.00
2021,06,08,09,30,13.10
2021,06,08,09,31,13.20
2021,06,08,09,32,13.40
2021,06,08,09,33,13.50
2021,06,08,09,34,13.60
2021,06,08,09,35,13.60
2021,06,08,09,36,13.60
2021,06,08,09,37,13.70
2021,06,08,09,38,13.60
2021,06,08,09,39,13.70
2021,06,08,09,40,13.70
2021,06,08,09,41,13.80
2021,06,08,09,42,13.90
2021,06,08,09,43,13.90
2021,06,08,09,44,14.00
2021,06,08,09,45,14.00
2021,06,08,09,46,14.10
2021,06,08,09,47,14.10
2021,06,08,09,48,14.10
2021,06,08,09,49,14.10
2021,06,08,09,50,14.00
2021,06,08,09,51,14.00
2021,06,08,09,52,14.10
2021,06,08,09,53,14.10
2021,06,08,09,54,14.10
2021,06,08,09,55,14.10
2021,06,08,09,56,14.20
2021,06,08,09,57,14.20
2021,06,08,09,58,14.30
2021,06,08,09,59,14.30
2021,06,08,10,00,14.20
2021,06,08,10,01,14.10
2021,06,08,10,02,14.10
2021,06,08,10,03,14.00
2021,06,08,10,04,14.10
2021,06,08,10,05,14.20
2021,06,08,10,06,14.30
2021,06,08,10,07,14.30
2021,06,08,10,08,14.30
2021,06,08,10,09,14.40
2021,06,08,10,10,14.40
2021,06,08,10,11,14.50
2021,06,08,10,12,14.50
2021,06,08,10,13,14.60
2021,06,08,10,14,14.70
2021,06,08,10,15,14.70
2021,06,08,10,16,14.70
2021,06,08,10,17,14.50
2021,06,08,10,18,14.40
2021,06,08,10,19,14.40
2021,06,08,10,20,14.50
2021,06,08,10,21,14.60
2021,06,08,10,22,14.60
2021,06,08,10,23,14.60
2021,06,08,10,24,14.60
2021,06,08,10,25,14.70
2021,06,08,10,26,14.70
2021,06,08,10,27,14.70
2021,06,08,10,28,14.70
2021,06,08,10,29,14.70
2021,06,08,10,30,14.70
2021,06,08,10,31,14.80
2021,06,08,10,32,14.80
2021,06,08,10,33,14.90
2021,06,08,10,34,14.90
2021,06,08,10,35,14.90
2021,06,08,10,36,15.00
2021,06,08,10,37,15.00
2021,06,08,10,38,15.10
2021,06,08,10,39,15.30
2021,06,08,10,40,15.30
2021,06,08,10,41,15.30
2021,06,08,10,42,15.40
2021,06,08,10,43,15.50
2021,06,08,10,44,15.50
2021,06,08,10,45,15.50
2021,06,08,10,46,15.60
2021,06,08,10,47,15.70
2021,06,08,10,48,15.70
2021,06,08,10,49,15.80
2021,06,08,10,50,15.90
2021,06,08,10,51,15.80
2021,06,08,10,52,15.80
2021,06,08,10,53,15.80
2021,06,08,10,54,15.70
2021,06,08,10,55,15.70
2021,06,08,10,56,15.70
2021,06,08,10,57,15.80
2021,06,08,10,58,15.80
2021,06,08,10,59,15.60
2021,06,08,11,00,15.60
2021,06,08,11,01,15.60
2021,06,08,11,02,15.60
2021,06,08,11,03,15.70
2021,06,08,11,04,15.70
2021,06,08,11,05,15.60
2021,06,08,11,06,15.60
2021,06,08,11,07,15.60
2021,06,08,11,08,15.70
2021,06,08,11,09,15.70
2021,06,08,11,10,15.70
2021,06,08,11,11,15.60
2021,06,08,11,12,15.60
2021,06,08,11,13,15.60
2021,06,08,11,14,15.50
2021,06,08,11,15,15.60
2021,06,08,11,16,15.50
2021,06,08,11,17,15.40
2021,06,08,11,18,15.40
2021,06,08,11,19,15.40
2021,06,08,11,20,15.40
2021,06,08,11,21,15.50
2021,06,08,11,22,15.60
2021,06,08,11,23,15.60
2021,06,08,11,24,15.70
2021,06,08,11,25,15.70
2021,06,08,11,26,15.70
2021,06,08,11,27,15.60
2021,06,08,11,28,15.50
2021,06,08,11,29,15.60
2021,06,08,11,30,15.60
2021,06,08,11,31,15.60
2021,06,08,11,32,15.50
2021,06,08,11,33,15.50
2021,06,08,11,34,15.60
2021,06,08,11,35,15.60
2021,06,08,11,36,15.60
2021,06,08,11,37,15.60
2021,06,08,11,38,15.60
2021,06,08,11,39,15.60
2021,06,08,11,40,15.70
2021,06,08,11,41,15.80
2021,06,08,11,42,15.80
2021,06,08,11,43,15.80
2021,06,08,11,44,15.80
2021,06,08,11,45,15.80
2021,06,08,11,46,15.80
2021,06,08,11,47,15.70
2021,06,08,11,48,15.70
2021,06,08,11,49,15.60
2021,06,08,11,50,15.60
2021,06,08,11,51,15.70
2021,06,08,11,52,15.80
2021,06,08,11,53,15.80
2021,06,08,11,54,15.80
2021,06,08,11,55,15.70
2021,06,08,11,56,15.60
2021,06,08,11,57,15.60
2021,06,08,11,58,15.60
2021,06,08,11,59,15.60
2021,06,08,12,00,15.50
2021,06,08,12,01,15.50
2021,06,08,12,02,15.40
2021,06,08,12,03,15.40
2021,06,08,12,04,15.40
2021,06,08,12,05,15.50
2021,06,08,12,06,15.50
2021,06,08,12,07,15.40
2021,06,08,12,08,15.30
2021,06,08,12,09,15.30
2021,06,08,12,10,15.30
2021,06,08,12,11,15.40
2021,06,08,12,12,15.60
2021,06,08,12,13,15.80
2021,06,08,12,14,15.90
2021,06,08,12,15,15.90
2021,06,08,12,16,15.90
2021,06,08,12,17,15.90
2021,06,08,12,18,16.00
2021,06,08,12,19,16.10
2021,06,08,12,20,16.20
2021,06,08,12,21,16.30
2021,06,08,12,22,16.30
2021,06,08,12,23,16.30
2021,06,08,12,24,16.30
2021,06,08,12,25,16.30
2021,06,08,12,26,16.40
2021,06,08,12,27,16.40
2021,06,08,12,28,16.40
2021,06,08,12,29,16.50
2021,06,08,12,30,16.60
2021,06,08,12,31,16.80
2021,06,08,12,32,16.90
2021,06,08,12,33,16.90
2021,06,08,12,34,16.90
2021,06,08,12,35,16.80
2021,06,08,12,36,16.70
2021,06,08,12,37,16.70
2021,06,08,12,38,16.70
2021,06,08,12,39,16.70
2021,06,08,12,40,16.70
2021,06,08,12,41,16.70
2021,06,08,12,42,16.70
2021,06,08,12,43,16.70
2021,06,08,12,44,16.60
2021,06,08,12,45,16.60
2021,06,08,12,46,16.40
2021,06,08,12,47,16.40
2021,06,08,12,48,16.30
2021,06,08,12,49,16.20
2021,06,08,12,50,16.10
2021,06,08,12,51,16.10
2021,06,08,12,52,16.20
2021,06,08,12,53,16.30
2021,06,08,12,54,16.40
2021,06,08,12,55,16.40
2021,06,08,12,56,16.40
2021,06,08,12,57,16.40
2021,06,08,12,58,16.40
2021,06,08,12,59,16.40
2021,06,08,13,00,16.50
2021,06,08,13,01,16.50
2021,06,08,13,02,16.60
2021,06,08,13,03,16.60
2021,06,08,13,04,16.60
2021,06,08,13,05,16.70
2021,06,08,13,06,16.70
2021,06,08,13,07,16.70
2021,06,08,13,08,16.70
2021,06,08,13,09,16.70
2021,06,08,13,10,16.70
2021,06,08,13,11,16.60
2021,06,08,13,12,16.60
2021,06,08,13,13,16.60
2021,06,08,13,14,16.60
2021,06,08,13,15,16.70
2021,06,08,13,16,16.80
2021,06,08,13,17,17.00
2021,06,08,13,18,17.20
2021,06,08,13,19,17.30
2021,06,08,13,20,17.50
2021,06,08,13,21,17.50
2021,06,08,13,22,17.50
2021,06,08,13,23,17.40
2021,06,08,13,24,17.20
2021,06,08,13,25,17.10
2021,06,08,13,26,17.00
2021,06,08,13,27,16.90
2021,06,08,13,28,16.80
2021,06,08,13,29,16.80
2021,06,08,13,30,16.70
2021,06,08,13,31,16.70
2021,06,08,13,32,16.60
2021,06,08,13,33,16.60
2021,06,08,13,34,16.60
2021,06,08,13,35,16.60
2021,06,08,13,36,16.60
2021,06,08,13,37,16.60
2021,06,08,13,38,16.60
2021,06,08,13,39,16.60
2021,06,08,13,40,16.70
2021,06,08,13,41,16.80
2021,06,08,13,42,16.90
2021,06,08,13,43,17.00
2021,06,08,13,44,17.10
2021,06,08,13,45,17.10
2021,06,08,13,46,17.00
2021,06,08,13,47,17.00
2021,06,08,13,48,17.10
2021,06,08,13,49,17.20
2021,06,08,13,50,17.20
2021,06,08,13,51,17.20
2021,06,08,13,52,17.10
2021,06,08,13,53,17.20
2021,06,08,13,54,17.20
2021,06,08,13,55,17.30
2021,06,08,13,56,17.40
2021,06,08,13,57,17.40
2021,06,08,13,58,17.40
2021,06,08,13,59,17.30
2021,06,08,14,00,17.30
2021,06,08,14,01,17.20
2021,06,08,14,02,17.10
2021,06,08,14,03,16.90
2021,06,08,14,04,16.70
2021,06,08,14,05,16.60
2021,06,08,14,06,16.50
2021,06,08,14,07,16.40
2021,06,08,14,08,16.30
2021,06,08,14,09,16.30
2021,06,08,14,10,16.20
2021,06,08,14,11,16.20
2021,06,08,14,12,16.20
2021,06,08,14,13,16.20
2021,06,08,14,14,16.30
2021,06,08,14,15,16.30
2021,06,08,14,16,16.40
2021,06,08,14,17,16.40
2021,06,08,14,18,16.40
2021,06,08,14,19,16.30
2021,06,08,14,20,16.30
2021,06,08,14,21,16.40
2021,06,08,14,22,16.40
2021,06,08,14,23,16.40
2021,06,08,14,24,16.40
2021,06,08,14,25,16.40
2021,06,08,14,26,16.30
2021,06,08,14,27,16.30
2021,06,08,14,28,16.40
2021,06,08,14,29,16.50
2021,06,08,14,30,16.50
2021,06,08,14,31,16.60
2021,06,08,14,32,16.70
2021,06,08,14,33,16.80
2021,06,08,14,34,16.90
2021,06,08,14,35,17.10
2021,06,08,14,36,17.20
2021,06,08,14,37,17.30
2021,06,08,14,38,17.40
2021,06,08,14,39,17.50
2021,06,08,14,40,17.70
2021,06,08,14,41,17.80
2021,06,08,14,42,17.80
2021,06,08,14,43,17.80
2021,06,08,14,44,17.80
2021,06,08,14,45,17.90
2021,06,08,14,46,17.90
2021,06,08,14,47,17.90
2021,06,08,14,48,17.90
2021,06,08,14,49,17.90
2021,06,08,14,50,17.90
2021,06,08,14,51,18.00
2021,06,08,14,52,18.00
2021,06,08,14,53,18.00
2021,06,08,14,54,18.00
2021,06,08,14,55,17.90
2021,06,08,14,56,18.00
2021,06,08,14,57,18.00
2021,06,08,14,58,18.10
2021,06,08,14,59,18.20
2021,06,08,15,00,18.10
2021,06,08,15,01,18.10
2021,06,08,15,02,18.10
2021,06,08,15,03,18.10
2021,06,08,15,04,18.30
2021,06,08,15,05,18.40
2021,06,08,15,06,18.40
2021,06,08,15,07,18.40
2021,06,08,15,08,18.50
2021,06,08,15,09,18.50
2021,06,08,15,10,18.60
2021,06,08,15,11,18.60
2021,06,08,15,12,18.50
2021,06,08,15,13,18.40
2021,06,08,15,14,18.30
2021,06,08,15,15,18.40
2021,06,08,15,16,18.40
2021,06,08,15,17,18.50
2021,06,08,15,18,18.60
2021,06,08,15,19,18.70
2021,06,08,15,20,18.80
2021,06,08,15,21,18.90
2021,06,08,15,22,18.90
2021,06,08,15,23,18.90
2021,06,08,15,24,19.00
2021,06,08,15,25,19.10
2021,06,08,15,26,19.10
2021,06,08,15,27,19.10
2021,06,08,15,28,19.10
2021,06,08,15,29,19.10
2021,06,08,15,30,19.10
2021,06,08,15,31,19.20
2021,06,08,15,32,19.10
2021,06,08,15,33,18.90
2021,06,08,15,34,18.80
2021,06,08,15,35,18.70
2021,06,08,15,36,18.60
2021,06,08,15,37,18.60
2021,06,08,15,38,18.60
2021,06,08,15,39,18.60
2021,06,08,15,40,18.60
2021,06,08,15,41,18.70
2021,06,08,15,42,18.70
2021,06,08,15,43,18.80
2021,06,08,15,44,18.80
2021,06,08,15,45,18.80
2021,06,08,15,46,18.90
2021,06,08,15,47,18.80
2021,06,08,15,48,18.90
2021,06,08,15,49,18.80
2021,06,08,15,50,18.60
2021,06,08,15,51,18.50
2021,06,08,15,52,18.30
2021,06,08,15,53,18.10
2021,06,08,15,54,18.00
2021,06,08,15,55,18.00
2021,06,08,15,56,18.00
2021,06,08,15,57,17.90
2021,06,08,15,58,17.90
2021,06,08,15,59,18.00
2021,06,08,16,00,18.10
2021,06,08,16,01,18.20
2021,06,08,16,02,18.40
2021,06,08,16,03,18.40
2021,06,08,16,04,18.40
2021,06,08,16,05,18.50
2021,06,08,16,06,18.40
2021,06,08,16,07,18.40
2021,06,08,16,08,18.40
2021,06,08,16,09,18.50
2021,06,08,16,10,18.60
2021,06,08,16,11,18.80
2021,06,08,16,12,18.90
2021,06,08,16,13,18.90
2021,06,08,16,14,19.00
2021,06,08,16,15,19.10
2021,06,08,16,16,19.00
2021,06,08,16,17,19.00
2021,06,08,16,18,18.90
2021,06,08,16,19,18.70
2021,06,08,16,20,18.70
2021,06,08,16,21,18.60
2021,06,08,16,22,18.60
2021,06,08,16,23,18.70
2021,06,08,16,24,18.70
2021,06,08,16,25,18.70
2021,06,08,16,26,18.60
2021,06,08,16,27,18.50
2021,06,08,16,28,18.40
2021,06,08,16,29,18.40
2021,06,08,16,30,18.40
2021,06,08,16,31,18.40
2021,06,08,16,32,18.40
2021,06,08,16,33,18.30
2021,06,08,16,34,18.40
2021,06,08,16,35,18.30
2021,06,08,16,36,18.30
2021,06,08,16,37,18.30
2021,06,08,16,38,18.30
2021,06,08,16,39,18.40
2021,06,08,16,40,18.60
2021,06,08,16,41,18.70
2021,06,08,16,42,18.80
2021,06,08,16,43,18.90
2021,06,08,16,44,18.90
2021,06,08,16,45,18.90
2021,06,08,16,46,18.80
2021,06,08,16,47,18.80
2021,06,08,16,48,18.70
2021,06,08,16,49,18.70
2021,06,08,16,50,18.60
2021,06,08,16,51,18.60
2021,06,08,16,52,18.60
2021,06,08,16,53,18.60
2021,06,08,16,54,18.70
2021,06,08,16,55,18.70
2021,06,08,16,56,18.70
2021,06,08,16,57,18.40
2021,06,08,16,58,18.10
2021,06,08,16,59,17.90
2021,06,08,17,00,17.80
2021,06,08,17,01,17.80
2021,06,08,17,02,17.80
2021,06,08,17,03,17.70
2021,06,08,17,04,17.60
2021,06,08,17,05,17.60
2021,06,08,17,06,17.50
2021,06,08,17,07,17.50
2021,06,08,17,08,17.70
2021,06,08,17,09,17.80
2021,06,08,17,10,17.80
2021,06,08,17,11,17.70
2021,06,08,17,12,17.70
2021,06,08,17,13,17.80
2021,06,08,17,14,17.80
2021,06,08,17,15,17.80
2021,06,08,17,16,17.80
2021,06,08,17,17,17.80
2021,06,08,17,18,17.80
2021,06,08,17,19,17.80
2021,06,08,17,20,17.80
2021,06,08,17,21,17.80
2021,06,08,17,22,17.90
2021,06,08,17,23,18.00
2021,06,08,17,24,18.10
2021,06,08,17,25,18.10
2021,06,08,17,26,18.10
2021,06,08,17,27,18.10
2021,06,08,17,28,18.10
2021,06,08,17,29,18.20
2021,06,08,17,30,18.20
2021,06,08,17,31,18.20
2021,06,08,17,32,18.20
2021,06,08,17,33,18.20
2021,06,08,17,34,18.20
2021,06,08,17,35,18.20
2021,06,08,17,36,18.10
2021,06,08,17,37,18.10
2021,06,08,17,38,18.00
2021,06,08,17,39,17.90
2021,06,08,17,40,17.90